FW9895 Weather Reports


Display with metric or nautical units.
time (UTC)temp
F
wind
direction
speed
MPH
gust
MPH
rain 1hr
in
rain 24hr
in
rain mn
in
humidity
%
barometer
mb
20260507230059 60 242 5.0 12.0 0.00 0.00 0.00 69 1019.0
20260507224555 60 246 6.0 13.0 0.00 0.00 0.00 65 1019.1
20260507223058 60 219 3.0 10.0 0.00 0.00 0.00 67 1019.3
20260507221554 59 208 4.0 9.0 0.00 0.00 0.00 69 1019.2
20260507220059 59 196 5.0 8.0 0.00 0.00 0.00 72 1019.3
20260507214558 58 215 4.0 8.0 0.00 0.00 0.00 62 1019.4
20260507213052 58 216 4.0 10.0 0.00 0.00 0.00 67 1019.5
20260507211559 58 208 3.0 9.0 0.00 0.00 0.00 73 1019.5
20260507210056 57 0 4.0 12.0 0.00 0.00 0.00 70 1019.6
20260507204559 57 194 5.0 10.0 0.00 0.00 0.00 73 1019.6
20260507203100 58 187 4.0 7.0 0.00 0.00 0.00 70 1019.7
20260507201554 56 137 3.0 9.0 0.00 0.00 0.00 74 1019.7
20260507200054 57 179 3.0 11.0 0.00 0.00 0.00 64 1019.6
20260507194554 56 219 5.0 9.0 0.00 0.00 0.00 59 1019.7
20260507193100 55 188 2.0 8.0 0.00 0.00 0.00 67 1019.8
20260507191553 54 209 2.0 8.0 0.00 0.00 0.00 79 1019.7
20260507190052 54 119 3.0 7.0 0.00 0.00 0.00 82 1019.6
20260507184554 54 40 3.0 7.0 0.00 0.00 0.00 81 1019.7
20260507183058 53 115 1.0 7.0 0.00 0.00 0.00 83 1019.8
20260507181553 51 0 0.0 3.0 0.00 0.00 0.00 85 1019.7
20260507180053 51 105 2.0 8.0 0.00 0.00 0.00 85 1019.7
20260507174605 52 0 0.0 7.0 0.00 0.00 0.00 83 1019.6
20260507173101 51 146 1.0 7.0 0.00 0.00 0.00 85 1019.6
20260507171612 50 55 3.0 7.0 0.00 0.00 0.00 85 1019.6
20260507170058 48 74 3.0 8.0 0.00 0.00 0.00 88 1019.5
20260507164607 48 173 3.0 7.0 0.00 0.00 0.00 87 1019.4
20260507163054 46 141 3.0 8.0 0.00 0.00 0.00 92 1019.4
20260507161603 46 140 4.0 8.0 0.00 0.00 0.00 91 1019.4
20260507160100 45 189 3.0 8.0 0.00 0.00 0.00 94 1019.3
20260507154558 44 170 2.0 6.0 0.00 0.00 0.00 95 1019.4
20260507153055 44 173 3.0 7.0 0.00 0.00 0.00 97 1019.3
20260507151556 43 126 2.0 6.0 0.00 0.00 0.00 97 1019.4
20260507144557 43 150 2.0 7.0 0.00 0.00 0.00 99 1019.2
20260507143103 42 159 2.0 6.0 0.00 0.00 0.00 99 1019.2
20260507141556 42 173 4.0 8.0 0.00 0.00 0.00 99 1019.0
20260507140054 42 186 4.0 7.0 0.00 0.00 0.00 99 1018.9
20260507134555 42 165 2.0 5.0 0.00 0.00 0.00 99 1018.8
20260507133057 42 186 2.0 5.0 0.00 0.00 0.00 99 1018.9
20260507131558 42 0 1.0 7.0 0.00 0.00 0.00 99 1018.9
20260507130055 42 177 1.0 5.0 0.00 0.00 0.00 99 1019.0
20260507124555 42 182 2.0 7.0 0.00 0.00 0.00 99 1019.0
20260507123051 42 179 1.0 6.0 0.00 0.00 0.00 99 1019.0
20260507121556 42 191 3.0 7.0 0.00 0.00 0.00 99 1019.2
20260507120055 43 163 0.0 6.0 0.00 0.00 0.00 99 1019.3
20260507114559 43 198 1.0 6.0 0.00 0.00 0.00 99 1019.4
20260507113052 43 198 3.0 5.0 0.00 0.00 0.00 99 1019.5
20260507111555 43 203 2.0 6.0 0.00 0.00 0.00 99 1019.6
20260507110107 44 0 2.0 9.0 0.00 0.00 0.00 99 1019.7
20260507104550 44 212 2.0 8.0 0.00 0.00 0.00 99 1019.8
20260507103056 44 217 1.0 5.0 0.00 0.00 0.00 99 1019.8
20260507101558 44 165 3.0 7.0 0.00 0.00 0.00 99 1019.9
20260507100055 45 187 3.0 6.0 0.00 0.00 0.00 99 1020.0
20260507094610 45 197 2.0 7.0 0.00 0.00 0.00 99 1020.2
20260507093100 45 198 2.0 4.0 0.00 0.00 0.00 99 1020.4
20260507091635 45 198 0.0 6.0 0.00 0.00 0.00 99 1020.5
20260507090106 45 208 2.0 6.0 0.00 0.00 0.00 99 1020.7
20260507084555 45 192 1.0 7.0 0.00 0.00 0.00 99 1020.7
20260507083050 45 216 4.0 10.0 0.00 0.00 0.00 99 1020.6
20260507081555 46 209 3.0 7.0 0.00 0.00 0.00 99 1020.7
20260507080056 46 219 2.0 4.0 0.00 0.00 0.00 99 1020.7
20260507074553 47 173 4.0 8.0 0.00 0.00 0.00 99 1020.6
20260507073053 47 184 3.0 5.0 0.00 0.00 0.00 99 1020.7
20260507071554 46 188 3.0 6.0 0.00 0.00 0.00 99 1020.7
20260507070103 47 205 2.0 6.0 0.00 0.00 0.00 98 1020.8
20260507064553 47 197 3.0 6.0 0.00 0.00 0.00 98 1020.9
20260507063054 48 194 4.0 6.0 0.00 0.00 0.00 98 1021.0
20260507061558 48 0 1.0 6.0 0.00 0.00 0.00 98 1021.1
20260507060106 48 213 2.0 5.0 0.00 0.00 0.00 97 1021.1
20260507054558 48 239 2.0 5.0 0.00 0.00 0.00 97 1021.3
20260507053054 48 188 3.0 5.0 0.00 0.00 0.00 95 1021.4
20260507051550 48 0 0.0 3.0 0.00 0.00 0.00 91 1021.5
20260507050054 48 325 1.0 3.0 0.00 0.00 0.00 92 1021.6
20260507044552 48 0 0.0 1.0 0.00 0.00 0.00 98 1021.6
20260507043055 48 325 1.0 4.0 0.00 0.00 0.00 99 1021.7
20260507041553 48 325 3.0 7.0 0.00 0.00 0.00 98 1021.7
20260507040056 48 323 7.0 10.0 0.00 0.00 0.00 98 1021.6
20260507034559 49 17 7.0 9.0 0.00 0.00 0.00 98 1021.4
20260507033052 49 13 7.0 9.0 0.00 0.00 0.00 97 1021.3
20260507031549 49 24 7.0 9.0 0.00 0.00 0.00 95 1021.1
20260507030055 50 5 7.0 9.0 0.00 0.00 0.00 94 1021.1
20260507024559 50 324 5.0 11.0 0.00 0.00 0.00 93 1021.1
20260507023055 50 324 6.0 10.0 0.00 0.00 0.00 92 1021.1
20260507021557 51 324 5.0 8.0 0.00 0.00 0.00 91 1021.2
20260507020055 52 323 5.0 9.0 0.00 0.00 0.00 91 1021.2
20260507014558 52 360 4.0 10.0 0.00 0.00 0.00 90 1021.4
20260507013049 52 323 9.0 14.0 0.00 0.00 0.00 89 1021.3
20260507011551 53 16 8.0 16.0 0.00 0.00 0.00 88 1021.3
20260507010109 54 5 9.0 14.0 0.00 0.00 0.00 87 1021.4
20260507004553 54 313 6.0 13.0 0.00 0.00 0.00 87 1021.5
20260507003053 54 19 10.0 15.0 0.00 0.00 0.00 84 1021.4
20260507001555 57 320 5.0 12.0 0.00 0.00 0.00 80 1021.3
20260507000059 58 261 3.0 9.0 0.00 0.00 0.00 79 1021.3
20260506234550 60 311 3.0 9.0 0.00 0.00 0.00 76 1021.3
20260506233100 60 243 3.0 8.0 0.00 0.00 0.00 75 1021.3
20260506231551 60 249 2.0 7.0 0.00 0.00 0.00 77 1021.4